Weather History for KBDN - March, 2014

Change the Weather History Date:

Monday, March 17, 2014

  Actual Average (KRDM) Record (KRDM)
Temperature  
Mean Temperature 33 °F 40 °F  
Max Temperature 42 °F 54 °F 75 °F (1972)
Min Temperature 24 °F 26 °F 9 °F (1971)
Degree Days  
Heating Degree Days 32 25  
Month to date heating degree days 446  
Since 1 July heating degree days 5119  
Cooling Degree Days 0 0  
Month to date cooling degree days 0  
Year to date cooling degree days 0  
Moisture  
Dew Point 22 °F    
Average Humidity 62    
Maximum Humidity 93    
Minimum Humidity 29    
Precipitation  
Precipitation 0.06 in 0.02 in 0.24 in (1993)
Month to date precipitation 0.35  
Year to date precipitation 1.97  
Sea Level Pressure  
Sea Level Pressure 30.15 in    
Wind  
Wind Speed 14 mph (NW)    
Max Wind Speed 23 mph    
Max Gust Speed 31 mph    
Visibility 10 miles    
Events Rain , Snow    
T = Trace of Precipitation, MM = Missing Value Source: NWS Daily Summary

Daily Weather History Graph

Daily Weather History Graph

Search for Another Location

Airport or City:

Trip Planner

Search our weather history database for the weather conditions in past years. The results will help you decide how hot, cold, wet, or windy it might be!

Date:

Astronomy

Mar. 17, 2014 Rise Set
Actual Time 7:13 AM PDT 7:13 PM PDT
Civil Twilight 6:44 AM PDT 7:42 PM PDT
Nautical Twilight 6:10 AM PDT 8:16 PM PDT
Astronomical Twilight 5:36 AM PDT 8:50 PM PDT
Moon 8:39 PM PDT (3/17) 7:28 AM PDT (3/17)
Length of Visible Light 12h 57m
Length of Day
12h 00m
Full, 99% of the Moon is Illuminated
Mar 17
Full
Mar 23
Last Quarter
Mar 30
New
Apr 7
First Quarter
Apr 15
Full

Hourly Weather History & Observations

Time (PDT) Temp. Windchill Dew Point Humidity Pressure Visibility Wind Dir Wind Speed Gust Speed Precip Events Conditions
12:15 AM 39.2 °F 29.3 °F 33.8 °F 81% 29.88 in 10.0 mi SW 20.7 mph 27.6 mph N/A   Clear
12:35 AM 39.2 °F 29.8 °F 32.0 °F 75% 29.89 in 10.0 mi SW 18.4 mph 24.2 mph N/A Rain Light Rain
12:55 AM 37.4 °F 26.4 °F 32.0 °F 81% 29.92 in 7.0 mi NW 23.0 mph 29.9 mph N/A Rain Light Rain
1:15 AM 35.6 °F 25.2 °F 30.2 °F 81% 29.95 in 10.0 mi WNW 18.4 mph 26.5 mph N/A   Partly Cloudy
1:35 AM 35.6 °F 24.0 °F 28.4 °F 75% 29.97 in 10.0 mi WNW 23.0 mph 29.9 mph N/A   Clear
1:55 AM 35.6 °F 26.2 °F 28.4 °F 75% 29.99 in 10.0 mi NW 15.0 mph 21.9 mph N/A   Clear
2:15 AM 35.6 °F 26.6 °F 28.4 °F 75% 30.00 in 10.0 mi NW 13.8 mph 20.7 mph N/A Rain Light Rain
2:35 AM 33.8 °F 25.3 °F 28.4 °F 81% 30.02 in 10.0 mi NW 11.5 mph - N/A Rain Light Rain
2:55 AM 33.8 °F 25.3 °F 28.4 °F 81% 30.03 in 10.0 mi West 11.5 mph - N/A   Clear
3:15 AM 33.8 °F 23.9 °F 26.6 °F 75% 30.04 in 10.0 mi NW 15.0 mph 19.6 mph N/A   Clear
3:35 AM 33.8 °F 22.8 °F 24.8 °F 70% 30.04 in 10.0 mi WNW 18.4 mph 24.2 mph N/A   Scattered Clouds
3:55 AM 32.0 °F 23.0 °F 24.8 °F 75% 30.05 in 10.0 mi WNW 11.5 mph 19.6 mph N/A   Partly Cloudy
4:15 AM 32.0 °F 24.8 °F 24.8 °F 75% 30.06 in 10.0 mi WNW 8.1 mph 17.3 mph N/A   Clear
4:35 AM 32.0 °F 25.6 °F 24.8 °F 75% 30.07 in 10.0 mi NW 6.9 mph - N/A   Partly Cloudy
4:55 AM 32.0 °F 23.0 °F 24.8 °F 75% 30.08 in 8.0 mi WNW 11.5 mph 19.6 mph N/A Snow Light Snow
5:15 AM 32.0 °F 24.2 °F 28.4 °F 87% 30.08 in 1.8 mi NNW 9.2 mph 18.4 mph 0.04 in Snow Light Snow
5:35 AM 32.0 °F 25.6 °F 28.4 °F 87% 30.10 in 10.0 mi West 6.9 mph - 0.04 in   Partly Cloudy
5:55 AM 30.2 °F 22.6 °F 26.6 °F 86% 30.10 in 10.0 mi WNW 8.1 mph - 0.04 in   Clear
6:15 AM 30.2 °F 23.4 °F 26.6 °F 86% 30.11 in 10.0 mi NNW 6.9 mph - N/A   Clear
6:35 AM 30.2 °F 24.3 °F 26.6 °F 86% 30.13 in 6.0 mi NNW 5.8 mph - N/A Snow Light Snow
6:55 AM 30.2 °F 25.4 °F 26.6 °F 86% 30.13 in 5.0 mi North 4.6 mph - 0.02 in Snow Light Snow
7:15 AM 30.2 °F 22.6 °F 28.4 °F 93% 30.14 in 10.0 mi WNW 8.1 mph - N/A   Scattered Clouds
7:35 AM 28.4 °F 21.2 °F 26.6 °F 93% 30.15 in 10.0 mi West 6.9 mph - N/A Snow Light Snow
7:55 AM 30.2 °F 24.3 °F 26.6 °F 86% 30.16 in 10.0 mi SSW 5.8 mph - N/A   Clear
8:15 AM 32.0 °F 28.7 °F 26.6 °F 80% 30.16 in 10.0 mi West 3.5 mph - N/A   Clear
8:35 AM 32.0 °F 25.6 °F 26.6 °F 80% 30.17 in 10.0 mi WNW 6.9 mph - N/A   Clear
8:55 AM 32.0 °F 26.4 °F 24.8 °F 75% 30.18 in 10.0 mi WNW 5.8 mph - N/A   Clear
9:15 AM 33.8 °F 25.3 °F 23.0 °F 65% 30.18 in 10.0 mi NW 11.5 mph 19.6 mph N/A   Clear
9:35 AM 35.6 °F 27.5 °F 23.0 °F 60% 30.19 in 10.0 mi NNW 11.5 mph 16.1 mph N/A   Clear
9:55 AM 35.6 °F 26.6 °F 21.2 °F 56% 30.19 in 10.0 mi NW 13.8 mph 23.0 mph N/A   Clear
10:15 AM 35.6 °F 25.5 °F 21.2 °F 56% 30.19 in 10.0 mi NW 17.3 mph 21.9 mph N/A   Partly Cloudy
10:35 AM 37.4 °F 28.5 °F 19.4 °F 48% 30.20 in 10.0 mi NW 15.0 mph 24.2 mph N/A   Clear
10:55 AM 37.4 °F 27.5 °F 19.4 °F 48% 30.20 in 10.0 mi NNW 18.4 mph 27.6 mph N/A   Clear
11:15 AM 37.4 °F 27.5 °F 19.4 °F 48% 30.20 in 10.0 mi NW 18.4 mph 23.0 mph N/A   Clear
11:35 AM 37.4 °F 27.5 °F 19.4 °F 48% 30.21 in 10.0 mi NW 18.4 mph 24.2 mph N/A   Clear
11:55 AM 39.2 °F 32.0 °F 19.4 °F 45% 30.22 in 10.0 mi North 11.5 mph 23.0 mph N/A   Clear
12:15 PM 39.2 °F 29.3 °F 15.8 °F 39% 30.22 in 10.0 mi NNW 20.7 mph 26.5 mph N/A   Clear
12:35 PM 39.2 °F 30.8 °F 17.6 °F 42% 30.21 in 10.0 mi North 15.0 mph 19.6 mph N/A   Clear
12:55 PM 39.2 °F 30.8 °F 17.6 °F 42% 30.20 in 10.0 mi NNW 15.0 mph 24.2 mph N/A   Clear
1:15 PM 41.0 °F 33.5 °F 19.4 °F 42% 30.21 in 10.0 mi NNW 13.8 mph 19.6 mph N/A   Clear
1:35 PM 41.0 °F 33.9 °F 19.4 °F 42% 30.20 in 10.0 mi NNW 12.7 mph 18.4 mph N/A   Clear
1:55 PM 42.8 °F 34.5 °F 12.2 °F 29% 30.19 in 10.0 mi NNW 18.4 mph 25.3 mph N/A   Clear
2:15 PM 42.8 °F 34.8 °F 15.8 °F 34% 30.19 in 10.0 mi NNW 17.3 mph 23.0 mph N/A   Clear
2:35 PM 41.0 °F 31.6 °F 19.4 °F 42% 30.19 in 10.0 mi NNW 20.7 mph 28.8 mph N/A   Clear
2:55 PM 41.0 °F 31.6 °F 17.6 °F 39% 30.20 in 10.0 mi North 20.7 mph 26.5 mph N/A   Clear
3:15 PM 41.0 °F 31.9 °F 17.6 °F 39% 30.20 in 10.0 mi NNW 19.6 mph 25.3 mph N/A   Clear
3:35 PM 41.0 °F 31.9 °F 15.8 °F 36% 30.21 in 10.0 mi NNW 19.6 mph 27.6 mph N/A   Clear
3:55 PM 41.0 °F 32.5 °F 15.8 °F 36% 30.21 in 10.0 mi NNW 17.3 mph 26.5 mph N/A   Clear
4:15 PM 41.0 °F 31.4 °F 17.6 °F 39% 30.20 in 10.0 mi NNW 21.9 mph 29.9 mph N/A   Clear
4:35 PM 39.2 °F 29.3 °F 17.6 °F 42% 30.20 in 10.0 mi NW 20.7 mph 31.1 mph N/A   Clear
4:55 PM 39.2 °F 29.0 °F 17.6 °F 42% 30.21 in 10.0 mi NW 21.9 mph 28.8 mph N/A   Clear
5:15 PM 39.2 °F 32.0 °F 17.6 °F 42% 30.22 in 10.0 mi WNW 11.5 mph 24.2 mph N/A   Clear
5:35 PM 39.2 °F 31.6 °F 17.6 °F 42% 30.22 in 10.0 mi NW 12.7 mph 24.2 mph N/A   Clear
5:55 PM 39.2 °F 31.2 °F 15.8 °F 39% 30.21 in 10.0 mi NW 13.8 mph 21.9 mph N/A   Clear
6:15 PM 37.4 °F 27.5 °F 17.6 °F 45% 30.21 in 10.0 mi NW 18.4 mph 23.0 mph N/A   Clear
6:35 PM 37.4 °F 28.9 °F 17.6 °F 45% 30.21 in 10.0 mi NW 13.8 mph 18.4 mph N/A   Clear
6:55 PM 37.4 °F 28.5 °F 17.6 °F 45% 30.21 in 10.0 mi NNW 15.0 mph 23.0 mph N/A   Clear
7:15 PM 35.6 °F 28.6 °F 19.4 °F 52% 30.21 in 10.0 mi NNW 9.2 mph - N/A   Clear
7:35 PM 33.8 °F 29.6 °F 19.4 °F 56% 30.21 in 10.0 mi NNW 4.6 mph - N/A   Clear
7:55 PM 33.8 °F 28.6 °F 19.4 °F 56% 30.21 in 10.0 mi NW 5.8 mph - N/A   Clear
8:15 PM 32.0 °F 26.4 °F 19.4 °F 60% 30.22 in 10.0 mi NW 5.8 mph - N/A   Clear
8:35 PM 32.0 °F 26.4 °F 19.4 °F 60% 30.22 in 10.0 mi NW 5.8 mph - N/A   Clear
8:55 PM 32.0 °F 28.7 °F 19.4 °F 60% 30.22 in 10.0 mi East 3.5 mph - N/A   Clear
9:15 PM 32.0 °F 27.5 °F 19.4 °F 60% 30.22 in 10.0 mi NW 4.6 mph - N/A   Clear
9:35 PM 32.0 °F - 21.2 °F 64% 30.22 in 10.0 mi Calm Calm - N/A   Clear
9:55 PM 30.2 °F - 21.2 °F 69% 30.23 in 10.0 mi Calm Calm - N/A   Clear
10:15 PM 28.4 °F 24.6 °F 19.4 °F 69% 30.23 in 10.0 mi SW 3.5 mph - N/A   Clear
10:35 PM 26.6 °F - 19.4 °F 74% 30.23 in 10.0 mi Calm Calm - N/A   Clear
10:55 PM 24.8 °F - 19.4 °F 80% 30.24 in 10.0 mi Calm Calm - N/A   Clear
11:15 PM 26.6 °F - 19.4 °F 74% 30.24 in 10.0 mi Calm Calm - N/A   Clear
11:35 PM 26.6 °F 22.6 °F 21.2 °F 80% 30.25 in 10.0 mi West 3.5 mph - N/A   Clear
11:55 PM 26.6 °F - 21.2 °F 80% 30.25 in 10.0 mi Calm Calm - N/A   Clear